Voltar ao catálogo

SENTINEL-1D

AtivoCiênciaSSO
NORAD 66315·PAYLOAD·🇪🇺 EU

Lançado Nov 4, 2025 de Guiana Space Centre

Loading…

Próximas Passagens (próximas 24 horas)

TLE

AtualizadoSource: Space-Track

Época: Sep 14, 2026, 10:43 UTC

1 66315U 25251A   26257.44706477  .00000087  00000-0  28200-4 0  9998
2 66315  98.1824 263.5446 0001343  89.2829 270.8524 14.59198165 45741

Acompanhe SENTINEL-1D em tempo real com AllMySat

Download on the App Store